Hourly Data Report for September 02, 2020

BRIER ISLAND
NOVA SCOTIA
Current Station Operator: ECCC - MSC

44°17'09.000" N
66°20'48.000" W
15.80 m
8200604
71988
WVU

Download Data

Hourly Data (September 2020)
Hourly Data Report for September 2, 2020
TIME Temp Definition
°C
Dew Point Definition
°C
Rel Hum Definition
%
Wind Dir Definition
10's deg

Wind Spd Definition
km/h
Visibility Definition
km
Stn Press Definition
kPa
Hmdx Definition


Wind Chill Definition


Weather Definition


00:00 11.7 11.2 97 12 8   102.26     LegendNANA
01:00 11.3 11.3 100 9 16   102.13     LegendNANA
02:00 11.5 11.0 97 15 7   102.13     LegendNANA
03:00 11.6 11.0 96 13 8   102.13     LegendNANA
04:00 11.4 11.4 100 13 7   102.08     LegendNANA
05:00 11.9 11.9 100 12 13   102.00     LegendNANA
06:00 12.6 12.6 100 11 14   101.97     LegendNANA
07:00 13.4 13.3 99 11 29   101.90     LegendNANA
08:00 14.1 13.7 98 12 20   101.92     LegendNANA
09:00 16.0 14.5 91 12 23   101.85     LegendNANA
10:00 17.7 15.3 86 13 29   101.75     LegendNANA
11:00 18.4 15.7 84 14 25   101.68     LegendNANA
12:00 18.3 15.8 85 15 19   101.70     LegendNANA
13:00 17.2 15.2 88 15 20   101.60     LegendNANA
14:00 17.9 15.3 85 15 21   101.54     LegendNANA
15:00 18.8 15.6 82 16 23   101.49     LegendNANA
16:00 17.8 15.2 85 15 24   101.39     LegendNANA
17:00 17.2 15.1 87 15 22   101.32     LegendNANA
18:00 17.4 15.8 90 14 27   101.26     LegendNANA
19:00 17.1 16.0 93 14 28   101.23     LegendNANA
20:00 17.3 16.5 95 14 31   101.20     LegendNANA
21:00 17.7 17.3 97 14 37   101.12     LegendNANA
22:00 16.8 16.4 97 15 23   101.09     LegendNANA
23:00 16.3 16.1 99 16 22   101.01     LegendNANA

Notes on Data Quality.

Legend

  • E = Estimated
  • M = Missing
  • NA = Not Available*
  • [empty] = Indicates an unobserved value
Date modified: